This demonstration page uses our WeatherBlox Daily Observations layout. Learn more.

Left ArrowRight Arrow

38.20091, -84.87328

Hourly Observations for August 8, 2017

Temp ( °F °C ) Dew Point ( °F °C ) Humidity (%) Winds ( mph kmh ) Pressure ( in mb ) Visibility ( mi km ) Precip ( " mm )
12:53 am 00:53 Clear 65 18.3 62 16.7 90 90 Calm 30.04 1017 8 13 0.00 0.00
1:33 am 01:33 Clear with Mist and Fog 63 17.2 61 16.1 93 93 WSW 3 6 30.06 1018 2 3 0.00 0.00
1:41 am 01:41 Clear with Mist and Fog 64 17.8 61 16.1 90 90 Calm 30.06 1018 4 6 0.00 0.00
1:53 am 01:53 Clear 64 17.8 61 16.1 90 90 Calm 30.03 1017 10 16 0.00 0.00
2:09 am 02:09 Mostly Clear with Mist and Fog 63 17.2 61 16.1 93 93 NNW 5 7 30.06 1018 3 4 0.00 0.00
2:15 am 02:15 Mostly Cloudy with Mist and Fog 63 17.2 60 15.6 90 90 NNW 5 7 30.06 1018 1 2 0.00 0.00
2:28 am 02:28 Partly Cloudy with Mist and Fog 63 17.2 61 16.1 93 93 Calm 30.06 1018 2 3 0.00 0.00
2:37 am 02:37 Partly Cloudy 64 17.8 61 16.1 90 90 Calm 30.06 1018 10 16 0.00 0.00
2:53 am 02:53 Clear 64 17.8 61 16.1 90 90 Calm 30.04 1017 10 16 0.00 0.00
3:27 am 03:27 Mostly Clear 63 17.2 60 15.6 90 90 Calm 30.06 1018 10 16 0.00 0.00
3:50 am 03:50 Mostly Cloudy with Mist and Fog 63 17 61 16 94 94 Calm 30.06 1018 5 8 0.00 0.00
3:53 am 03:53 Mostly Cloudy with Mist and Fog 63 17.2 60 15.6 90 90 Calm 30.04 1017 1 2 0.00 0.00
4:14 am 04:14 Mostly Cloudy with Mist and Fog 62 16.7 60 15.6 93 93 Calm 30.06 1018 1 2 0.00 0.00
4:23 am 04:23 Cloudy with Mist and Fog 62 16.7 59 15 90 90 Calm 30.06 1018 2 3 0.00 0.00
4:27 am 04:27 Cloudy with Mist and Fog 62 16.7 59 15 90 90 Calm 30.06 1018 3 5 0.00 0.00
4:48 am 04:48 Partly Cloudy 61 16 57 14 88 88 Calm 30.06 1018 10 16 0.00 0.00
4:53 am 04:53 Partly Cloudy 61 16.1 58 14.4 90 90 Calm 30.04 1017 10 16 0.00 0.00
5:14 am 05:14 Mostly Cloudy 61 16.1 58 14.4 90 90 Calm 30.06 1018 9 14 0.00 0.00
5:27 am 05:27 Mostly Clear 61 16.1 58 14.4 90 90 NNW 3 6 30.06 1018 10 16 0.00 0.00
5:53 am 05:53 Clear 61 16.1 58 14.4 90 90 NNW 3 6 30.06 1018 10 16 0.00 0.00
6:53 am 06:53 Sunny 61 16.1 58 14.4 90 90 Calm 30.07 1018 9 14 0.00 0.00
7:53 am 07:53 Sunny 64 17.8 59 15 84 84 N 5 7 30.09 1019 10 16 0.00 0.00
8:53 am 08:53 Sunny 67 19.4 60 15.6 79 79 NNE 5 7 30.10 1019 10 16 0.00 0.00
9:53 am 09:53 Sunny 71 21.7 61 16.1 71 71 VRB 6 9 30.12 1020 10 16 0.00 0.00
10:53 am 10:53 Sunny 74 23.3 61 16.1 64 64 VRB 5 7 30.12 1020 10 16 0.00 0.00
11:53 am 11:53 Sunny 77 25 59 15 54 54 ENE 8 13 30.12 1020 10 16 0.00 0.00
12:53 pm 12:53 Mostly Cloudy 78 25.6 57 13.9 48 48 N 8 13 30.12 1020 10 16 0.00 0.00
1:53 pm 13:53 Mostly Cloudy 79 26.1 57 13.9 47 47 ENE 6 9 30.11 1020 10 16 0.00 0.00
2:53 pm 14:53 Partly Cloudy 82 27.8 57 13.9 42 42 VRB 5 7 30.11 1020 10 16 0.00 0.00
3:53 pm 15:53 Sunny 82 27.8 56 13.3 41 41 NNE 7 11 30.09 1019 10 16 0.00 0.00
4:53 pm 16:53 Partly Cloudy 82 27.8 54 12.2 38 38 N 8 13 30.09 1019 10 16 0.00 0.00
5:53 pm 17:53 Sunny 82 27.8 54 12.2 38 38 NE 6 9 30.08 1019 10 16 0.00 0.00
6:53 pm 18:53 Sunny 81 27.2 54 12.2 39 39 NNE 7 11 30.09 1019 10 16 0.00 0.00
7:53 pm 19:53 Mostly Sunny 79 26.1 57 13.9 47 47 NE 7 11 30.09 1019 10 16 0.00 0.00
8:53 pm 20:53 Clear 75 23.9 58 14.4 55 55 NE 6 9 30.11 1020 10 16 0.00 0.00
9:53 pm 21:53 Clear 73 22.8 58 14.4 59 59 NNE 6 9 30.12 1020 10 16 0.00 0.00
10:53 pm 22:53 Clear 71 21.7 57 13.9 61 61 NE 7 11 30.13 1020 10 16 0.00 0.00
11:53 pm 23:53 Clear 70 21.1 56 13.3 61 61 NE 8 13 30.13 1020 10 16 0.00 0.00

Powered by AerisWeather